This is the latest recevied weather packets stored in our database for station/object NO4D. If no packets are shown the sender has not sent any weather packets the latest 10 day(s).
| Time | Temp. | Humidity | Pressure | Rain* | Wind** | Luminosity | Snow |
|---|---|---|---|---|---|---|---|
| 1777360063 | 12.22° C | 90% | 1021.1 hPa | 0 mm | - | 0 W/m² | - |
| 1777359759 | 12.22° C | 90% | 1021.3 hPa | 0 mm | - | 0 W/m² | - |
| 1777359456 | 12.22° C | 90% | 1021.3 hPa | 0 mm | - | 0 W/m² | - |
| 1777359153 | 12.22° C | 89% | 1021.5 hPa | 0 mm | - | 0 W/m² | - |
| 1777358851 | 12.22° C | 89% | 1021.4 hPa | 0 mm | - | 0 W/m² | - |
| 1777358547 | 12.78° C | 88% | 1021.7 hPa | 0 mm | - | 0 W/m² | - |
| 1777358246 | 12.22° C | 89% | 1021.5 hPa | 0 mm | - | 0 W/m² | - |
| 1777357943 | 12.22° C | 89% | 1021.7 hPa | 0 mm | - | 0 W/m² | - |
| 1777357640 | 12.78° C | 89% | 1021.8 hPa | 0 mm | - | 0 W/m² | - |
| 1777357337 | 12.22° C | 90% | 1021.8 hPa | 0 mm | - | 0 W/m² | - |
| 1777357034 | 12.22° C | 91% | 1021.7 hPa | 0 mm | - | 0 W/m² | - |
| 1777356731 | 11.67° C | 92% | 1021.5 hPa | 0 mm | - | 0 W/m² | - |
| 1777356429 | 11.67° C | 92% | 1021.8 hPa | 0 mm | - | 0 W/m² | - |
| 1777356125 | 11.67° C | 93% | 1021.7 hPa | 0 mm | - | 0 W/m² | - |
| 1777355822 | 11.67° C | 93% | 1022 hPa | 0 mm | - | 0 W/m² | - |
| 1777355519 | 11.67° C | 93% | 1022.2 hPa | 0 mm | - | 0 W/m² | - |
| 1777355215 | 11.67° C | 93% | 1022.2 hPa | 0 mm | - | 0 W/m² | - |
| 1777354911 | 11.11° C | 92% | 1022.4 hPa | 0 mm | - | 0 W/m² | - |
| 1777354608 | 11.67° C | 92% | 1022.3 hPa | 0 mm | - | 0 W/m² | - |
| 1777354303 | 11.67° C | 92% | 1022.1 hPa | 0 mm | - | 0 W/m² | - |
| 1777354001 | 11.67° C | 92% | 1022.2 hPa | 0 mm | - | 0 W/m² | - |
| 1777353697 | 11.67° C | 92% | 1022.4 hPa | 0 mm | - | 0 W/m² | - |
| 1777353395 | 11.67° C | 92% | 1022.3 hPa | 0 mm | - | 0 W/m² | - |
| 1777353093 | 11.67° C | 91% | 1022.4 hPa | 0 mm | - | 0 W/m² | - |
| 1777352791 | 12.22° C | 91% | 1022.1 hPa | 0 mm | - | 0 W/m² | - |
* Rain latest hour (hover to see other rain measurements)
** Current wind speed in m/s (hover to see current wind gust speed)